Flag for France Weather past 2 weeks in Saint-Étienne, France

Now
68 °F

Passing clouds.


Feels Like: 68 °F
Forecast: 63 / 89 °F
Wind: 5 mph from Southwest

Location: St-Etienne Boutheon

Current Time: Aug 28, 2015 at 7:34:27 AM

Latest Report: Aug 28, 2015 at 6:30 AM


Visibility: N/A

Pressure: 30.04 "Hg (28.24 "Hg at 529m altitude)

Humidity: 64%

Dew point: 55 °F

Location of Saint-ÉtienneLocation

Historic Weather in Saint-Étienne — Graph

°F

Saint-Étienne temperature yesterday

Maximum temperature yesterday: 88 °F (at 2:30 PM)
Minimum temperature yesterday: 64 °F (at 2:30 AM)
Average temperature yesterday: 76 °F

Past Weeks' High & Low Weather Summary

 TemperatureHumidityPressure
High90 °F (Aug 26, 4:00 PM)100% (Aug 24, 7:00 AM)30.24 "Hg (Aug 24, 7:00 AM)
Low48 °F (Aug 16, 7:30 AM)18% (Aug 26, 4:00 PM)29.68 "Hg (Aug 24, 4:30 AM)
Average67 °F60%30.00 "Hg
* Reported Aug 13 6:00 AM — Aug 28 6:00 AM, Saint-Étienne, Weather by CustomWeather, © 2015

Note: Actual official high and low records may vary slightly from our data, if they occured in-between our weather recording intervals... More about our weather records

Advertising

Saint-Étienne weather history for previous 24 hours

 ConditionsComfort  
Time TempWeatherWind HumidityBarometerVisibility
6:00 AM
Fri, Aug 28
68 °FPassing clouds.5 mph64%30.04 "HgN/A
5:30 AM66 °FPassing clouds.6 mph64%30.01 "HgN/A
5:00 AM68 °FClear.5 mph60%30.01 "Hg10 mi
4:30 AM68 °FClear.7 mph60%30.01 "Hg10 mi
4:00 AM68 °FClear.2 mph60%30.01 "Hg10 mi
3:30 AM70 °FClear.No wind57%30.01 "Hg10 mi
3:00 AM70 °FClear.No wind57%30.01 "Hg10 mi
2:30 AM73 °FClear.6 mph50%30.01 "Hg10 mi
2:00 AM73 °FPassing clouds.6 mph50%30.01 "HgN/A
1:30 AM73 °FPassing clouds.5 mph50%30.01 "HgN/A
1:00 AM73 °FClear.6 mph50%30.01 "Hg10 mi
12:30 AM75 °FPassing clouds.8 mph47%30.01 "HgN/A
12:00 AM75 °FPassing clouds.7 mph44%30.01 "HgN/A
11:30 PM
Thu, Aug 27
75 °FPassing clouds.6 mph44%30.01 "HgN/A
11:00 PM75 °FPassing clouds.3 mph44%30.01 "HgN/A
10:30 PM75 °FPassing clouds.6 mph44%30.01 "HgN/A
10:00 PM77 °FPassing clouds.8 mph42%29.98 "HgN/A
9:30 PM77 °FPassing clouds.10 mph42%29.98 "HgN/A
9:00 PM77 °FSunny.13 mph44%29.98 "Hg10 mi
8:30 PM79 °FSunny.15 mph42%29.95 "Hg10 mi
8:00 PM81 °FSunny.17 mph42%29.95 "Hg10 mi
7:30 PM82 °FSunny.18 mph40%29.95 "Hg10 mi
7:00 PM84 °FSunny.18 mph35%29.92 "Hg10 mi
6:30 PM86 °FSunny.17 mph33%29.92 "Hg10 mi
6:00 PM84 °FScattered clouds.18 mph35%29.92 "HgN/A
5:30 PM86 °FScattered clouds.17 mph33%29.92 "HgN/A
5:00 PM86 °FPassing clouds.15 mph33%29.92 "HgN/A
4:30 PM88 °FPassing clouds.13 mph31%29.92 "HgN/A
4:00 PM88 °FPassing clouds.16 mph29%29.92 "HgN/A
3:30 PM86 °FPassing clouds.17 mph31%29.95 "HgN/A
3:00 PM86 °FPassing clouds.18 mph31%29.92 "HgN/A
2:30 PM88 °FPassing clouds.20 mph29%29.92 "HgN/A
2:00 PM86 °FSunny.16 mph31%29.95 "Hg10 mi
1:00 PM84 °FPassing clouds.12 mph33%29.95 "HgN/A
12:30 PM84 °FPassing clouds.13 mph33%29.95 "HgN/A
11:30 AM81 °FPassing clouds.14 mph34%29.98 "HgN/A
11:00 AM79 °FPassing clouds.9 mph34%29.98 "HgN/A
10:30 AM79 °FPassing clouds.9 mph37%29.98 "HgN/A
10:00 AM77 °FPassing clouds.8 mph36%29.98 "HgN/A
9:30 AM75 °FSunny.3 mph39%29.95 "Hg10 mi
9:00 AM72 °FSunny.No wind44%29.95 "Hg10 mi
8:30 AM70 °FSunny.No wind46%29.95 "Hg10 mi
8:00 AM66 °FPassing clouds.5 mph49%29.95 "HgN/A
7:30 AM66 °FClear.3 mph49%29.95 "Hg10 mi
7:00 AM68 °FClear.3 mph46%29.95 "Hg10 mi
Weather by CustomWeather, © 2015

See weather overviewHow to use our weather pages